Regional Weather Roundup
Issued by NWS

Home | Current Version | Previous Version | Graphics & Text | Print | Product List | Glossary On
Versions: 1 2 3 4 5 6 7 8 9 10 11 12 13 14 15 16 17 18 19 20 21 22 23 24 25 26 27 28 29 30 31 32 33 34 35 36 37 38 39 40 41 42 43 44 45 46 47 48 49 50
000
ASUS45 KBOI 300410
RWRID
WEATHER ROUNDUP FOR IDAHO
NATIONAL WEATHER SERVICE BOISE ID
1000 PM MDT FRI AUG 29 2014

NOTE: "FAIR" INDICATES FEW OR NO CLOUDS BELOW 12000 FEET
WITH NO SIGNIFICANT WEATHER AND/OR OBSTRUCTIONS TO VISIBILITY

IDZ012-014-300500-
SOUTHWEST IDAHO


CITY           SKY/WX    TMP DP  RH WIND       PRES   REMARKS
BOISE          CLOUDY    82  44  26 CALM      29.79R
CALDWELL       CLOUDY    79  46  31 CALM      29.79S
MOUNTAIN HOME  MOCLDY    78  45  30 SE12      29.81S
$$

IDZ016-017-300500-
SOUTHCENTRAL IDAHO


CITY           SKY/WX    TMP DP  RH WIND       PRES   REMARKS
BURLEY         CLOUDY    72  50  45 E3        29.91R
JEROME         CLOUDY    68  51  54 NE9       29.90F
TWIN FALLS     MOCLDY    68  50  52 W3        29.91S
$$

IDZ019>023-300500-
SOUTHEAST IDAHO


CITY           SKY/WX    TMP DP  RH WIND       PRES   REMARKS
IDAHO FALLS    CLEAR     72  47  40 S7        29.97S
POCATELLO      CLEAR     73  41  31 S9        29.96S
REXBURG        CLEAR     66  46  48 S3        29.98R
$$

IDZ006-010-011-018-031-032-300500-
CENTRAL IDAHO MOUNTAINS


CITY           SKY/WX    TMP DP  RH WIND       PRES   REMARKS
MCCALL         PTCLDY    64  38  38 CALM      29.92S
HAILEY         CLOUDY    70  48  46 CALM      30.03R
STANLEY          N/A     63  38  39 SE8       30.06R
SALMON         PTCLDY    64  52  63 CALM      29.84R
CHALLIS        MOCLDY    72  37  28 W9        29.93S
$$

IDZ002-004-006-007-026-300500-
NORTHERN IDAHO


CITY           SKY/WX    TMP DP  RH WIND       PRES   REMARKS
LEWISTON       CLOUDY    80  39  23 NW6       29.80R
LOWELL           N/A     67  53  61 N3        29.81R
COEUR D`ALENE  CLOUDY    66  45  45 SW7       29.82R
MULLAN PASS    CLOUDY    56  33  42 VRB7      29.99S
$$


USA.gov is the U.S. government's official web portal to all federal, state and local government web resources and services.